TimeMDT,TemperatureF,Dew PointF,Humidity,Sea Level PressureIn,VisibilityMPH,Wind Direction,Wind SpeedMPH,Gust SpeedMPH,PrecipitationIn,Events,Conditions,WindDirDegrees,DateUTC
12:54 AM,73.0,48.0,41,29.83,10.0,SW,17.3,24.2,N/A,,Clear,230,2013-08-24 06:54:00
1:54 AM,72.0,46.9,41,29.82,10.0,WSW,10.4,-,N/A,,Clear,240,2013-08-24 07:54:00
2:54 AM,71.1,46.9,42,29.81,10.0,SW,16.1,-,N/A,,Clear,230,2013-08-24 08:54:00
3:54 AM,68.0,48.9,50,29.83,10.0,WSW,12.7,-,N/A,,Clear,250,2013-08-24 09:54:00
4:54 AM,68.0,48.0,49,29.84,10.0,WSW,8.1,-,N/A,,Clear,240,2013-08-24 10:54:00
5:54 AM,64.9,48.9,56,29.87,10.0,NW,4.6,-,N/A,,Clear,320,2013-08-24 11:54:00
6:54 AM,66.9,48.9,52,29.90,10.0,WNW,15.0,-,N/A,,Clear,290,2013-08-24 12:54:00
7:54 AM,72.0,48.9,44,29.91,10.0,WNW,8.1,-,N/A,,Partly Cloudy,290,2013-08-24 13:54:00
8:54 AM,73.9,48.9,41,29.90,10.0,NNW,4.6,-,N/A,,Clear,330,2013-08-24 14:54:00
9:54 AM,82.9,46.9,28,29.89,10.0,WSW,18.4,24.2,N/A,,Clear,240,2013-08-24 15:54:00
10:54 AM,84.9,46.0,26,29.89,10.0,SW,19.6,24.2,N/A,,Clear,220,2013-08-24 16:54:00
11:54 AM,86.0,45.0,24,29.88,10.0,South,8.1,25.3,N/A,,Clear,190,2013-08-24 17:54:00
12:54 PM,90.0,46.9,23,29.85,10.0,South,13.8,24.2,N/A,,Partly Cloudy,180,2013-08-24 18:54:00
1:54 PM,89.1,44.1,21,29.84,10.0,South,11.5,21.9,N/A,,Clear,190,2013-08-24 19:54:00
2:54 PM,87.1,44.1,22,29.83,10.0,SSW,16.1,24.2,N/A,,Overcast,200,2013-08-24 20:54:00
3:54 PM,86.0,43.0,22,29.85,10.0,South,15.0,-,N/A,,Clear,190,2013-08-24 21:54:00
4:54 PM,88.0,44.1,22,29.84,10.0,South,23.0,29.9,N/A,,Clear,190,2013-08-24 22:54:00
5:54 PM,82.9,45.0,26,29.88,10.0,SW,18.4,26.5,N/A,,Clear,220,2013-08-24 23:54:00
6:54 PM,81.0,45.0,28,29.89,10.0,SSW,17.3,27.6,N/A,,Clear,210,2013-08-25 00:54:00
7:54 PM,78.1,48.0,35,29.90,10.0,SW,13.8,-,N/A,,Scattered Clouds,230,2013-08-25 01:54:00
8:54 PM,73.0,50.0,44,29.92,10.0,WSW,15.0,-,N/A,,Clear,240,2013-08-25 02:54:00
9:54 PM,75.9,46.0,35,29.91,10.0,SSW,15.0,21.9,N/A,,Clear,210,2013-08-25 03:54:00
10:54 PM,73.9,48.9,41,29.92,10.0,SW,19.6,27.6,N/A,,Clear,230,2013-08-25 04:54:00
11:54 PM,75.0,46.0,36,29.92,10.0,SW,17.3,27.6,N/A,,Clear,220,2013-08-25 05:54:00